Change the Weather History Date:

Friday, January 31, 2014

  Actual Average Record
Temperature  
Mean Temperature 58 °F -  
Max Temperature 66 °F 65 °F 84 °F (2003)
Min Temperature 51 °F 41 °F 30 °F (2002)
Degree Days  
Heating Degree Days 6    
Growing Degree Days 8 (Base 50)    
Moisture  
Dew Point 33 °F    
Average Humidity 37    
Maximum Humidity 54    
Minimum Humidity 26    
Precipitation  
Precipitation 0.00 in - - ()
Sea Level Pressure  
Sea Level Pressure 29.82 in    
Wind  
Wind Speed 7 mph (SSW)    
Max Wind Speed 16 mph    
Max Gust Speed 21 mph    
Visibility 13 miles    
Events      
Averages and records for this station are not official NWS values.
T = Trace of Precipitation, MM = Missing Value Source: NWS Daily Summary

Daily Weather History Graph

Daily Weather History Graph

Search for Another Location

Airport or City:

Trip Planner

Search our weather history database for the weather conditions in past years. The results will help you decide how hot, cold, wet, or windy it might be!

Date:

Astronomy

Jan. 31, 2014 Rise Set
Actual Time 7:23 AM MST 5:57 PM MST
Civil Twilight 6:56 AM MST 6:23 PM MST
Nautical Twilight 6:27 AM MST 6:53 PM MST
Astronomical Twilight 5:58 AM MST 7:22 PM MST
Moon 7:40 AM MST (1/31) 7:19 PM MST (1/31)
Length of Visible Light 11h 26m
Length of Day
10h 34m
New Moon, 1% of the Moon is Illuminated
Jan 31
New Moon
Feb 6
First Quarter
Feb 14
Full
Feb 22
Last Quarter
Mar 1
New

Hourly Weather History & Observations

Time (MST) Temp. Dew Point Humidity Pressure Visibility Wind Dir Wind Speed Gust Speed Precip Events Conditions
12:15 AM 60.8 °F 30.2 °F 31% 29.79 in 10.0 mi SE 5.8 mph - N/A   Scattered Clouds
12:35 AM 60.8 °F 32.0 °F 34% 29.79 in 10.0 mi ESE 4.6 mph - N/A   Clear
12:55 AM 60.8 °F 30.2 °F 31% 29.79 in 10.0 mi South 5.8 mph - N/A   Scattered Clouds
1:15 AM 64.4 °F 28.4 °F 26% 29.78 in 10.0 mi SSW 10.4 mph - N/A   Mostly Cloudy
1:35 AM 64.4 °F 28.4 °F 26% 29.78 in 10.0 mi South 11.5 mph - N/A   Mostly Cloudy
1:55 AM 62.6 °F 28.4 °F 27% 29.78 in 10.0 mi SSE 6.9 mph - N/A   Overcast
2:15 AM 64.4 °F 28.4 °F 26% 29.78 in 10.0 mi SSE 9.2 mph - N/A   Mostly Cloudy
2:35 AM 64.4 °F 28.4 °F 26% 29.78 in 10.0 mi South 9.2 mph - N/A   Scattered Clouds
2:55 AM 64.4 °F 28.4 °F 26% 29.78 in 10.0 mi SSW 12.7 mph - N/A   Scattered Clouds
3:15 AM 64.4 °F 28.4 °F 26% 29.78 in 10.0 mi South 11.5 mph 18.4 mph N/A   Clear
3:35 AM 64.4 °F 28.4 °F 26% 29.78 in 10.0 mi South 10.4 mph - N/A   Clear
3:55 AM 62.6 °F 28.4 °F 27% 29.79 in 10.0 mi South 9.2 mph - N/A   Clear
4:15 AM 62.6 °F 28.4 °F 27% 29.79 in 10.0 mi South 8.1 mph - N/A   Clear
4:35 AM 60.8 °F 30.2 °F 31% 29.79 in 10.0 mi South 5.8 mph - N/A   Clear
4:47 AM 60.8 °F 30.2 °F 31% 29.79 in 20.0 mi SSE 6.9 mph - N/A   Mostly Cloudy
4:55 AM 60.8 °F 30.2 °F 31% 29.79 in 10.0 mi SSE 5.8 mph - N/A   Clear
5:15 AM 60.8 °F 30.2 °F 31% 29.79 in 10.0 mi SSE 5.8 mph - N/A   Clear
5:47 AM 59.0 °F 30.2 °F 34% 29.80 in 20.0 mi South 5.8 mph - N/A   Mostly Cloudy
6:47 AM 60.8 °F 30.2 °F 31% 29.82 in 20.0 mi South 9.2 mph - N/A   Mostly Cloudy
7:47 AM 60.8 °F 30.2 °F 31% 29.83 in 40.0 mi South 4.6 mph - N/A   Mostly Cloudy
8:47 AM 57.2 °F 33.8 °F 41% 29.83 in 40.0 mi South 4.6 mph - N/A   Mostly Cloudy
9:47 AM 64.4 °F 32.0 °F 30% 29.86 in 40.0 mi SW 11.5 mph - N/A   Mostly Cloudy
10:47 AM 66.2 °F 35.6 °F 32% 29.88 in 35.0 mi SW 16.1 mph - N/A   Overcast
11:47 AM 66.2 °F 35.6 °F 32% 29.89 in 15.0 mi SW 12.7 mph 20.7 mph N/A   Widespread Dust
12:47 PM 66.2 °F 35.6 °F 32% 29.86 in 15.0 mi SW 12.7 mph 20.7 mph N/A   Widespread Dust
1:47 PM 66.2 °F 33.8 °F 30% 29.84 in 15.0 mi West 8.1 mph 20.7 mph N/A   Widespread Dust
2:47 PM 66.2 °F 35.6 °F 32% 29.82 in 20.0 mi West 10.4 mph 18.4 mph N/A   Overcast
3:47 PM 66.2 °F 35.6 °F 32% 29.82 in 35.0 mi WSW 8.1 mph 16.1 mph N/A   Mostly Cloudy
4:47 PM 64.4 °F 33.8 °F 32% 29.82 in 35.0 mi West 8.1 mph 16.1 mph N/A   Mostly Cloudy
5:47 PM 62.6 °F 35.6 °F 37% 29.82 in 20.0 mi West 5.8 mph - N/A   Mostly Cloudy
7:55 PM 57.2 °F 33.8 °F 41% 29.84 in 10.0 mi Calm Calm - N/A   Clear
7:56 PM 57.2 °F 35.6 °F 44% 29.84 in 20.0 mi Calm Calm - N/A   Mostly Cloudy
8:15 PM 57.2 °F 33.8 °F 41% 29.84 in 10.0 mi SSW 4.6 mph - N/A   Clear
8:35 PM 55.4 °F 35.6 °F 47% 29.83 in 10.0 mi South 4.6 mph - N/A   Clear
8:47 PM 55.4 °F 35.6 °F 47% 29.83 in 20.0 mi ESE 3.5 mph - N/A   Scattered Clouds
8:55 PM 51.8 °F 33.8 °F 50% 29.83 in 10.0 mi SE 4.6 mph - N/A   Clear
9:15 PM 55.4 °F 35.6 °F 47% 29.83 in 10.0 mi Calm Calm - N/A   Clear
9:35 PM 57.2 °F 35.6 °F 44% 29.83 in 10.0 mi WSW 6.9 mph - N/A   Scattered Clouds
9:47 PM 57.2 °F 35.6 °F 44% 29.84 in 20.0 mi South 5.8 mph - N/A   Scattered Clouds
9:55 PM 57.2 °F 35.6 °F 44% 29.84 in 10.0 mi SSW 4.6 mph - N/A   Scattered Clouds
10:15 PM 55.4 °F 35.6 °F 47% 29.84 in 10.0 mi SW 4.6 mph - N/A   Mostly Cloudy
10:35 PM 53.6 °F 35.6 °F 51% 29.84 in 10.0 mi SW 9.2 mph - N/A   Scattered Clouds
10:47 PM 53.6 °F 37.4 °F 54% 29.84 in 20.0 mi South 8.1 mph - N/A   Mostly Cloudy
10:55 PM 53.6 °F 35.6 °F 51% 29.84 in 10.0 mi SSW 8.1 mph - N/A   Clear
11:15 PM 51.8 °F 35.6 °F 54% 29.85 in 10.0 mi Calm Calm - N/A   Clear
11:35 PM 53.6 °F 35.6 °F 51% 29.85 in 10.0 mi Calm Calm - N/A   Scattered Clouds
11:47 PM 55.4 °F 35.6 °F 47% 29.84 in 20.0 mi Variable 3.5 mph - N/A   Mostly Cloudy
11:55 PM 55.4 °F 35.6 °F 47% 29.84 in 10.0 mi West 5.8 mph - N/A   Mostly Cloudy